Weather reports worldwide

Advertisment
Firenze/Peretola, Italy (16170): temperature & dewpoint: 16.02.2019 22:00:00 - 22.02.2019 22:00:00 (CET)Firenze/Peretola, Italy (16170): wind speed: 16.02.2019 22:00:00 - 22.02.2019 22:00:00 (CET)Firenze/Peretola, Italy (16170): wind direction: 16.02.2019 22:00:00 - 22.02.2019 22:00:00 (CET)Firenze/Peretola, Italy (16170): reduced air pressure: 16.02.2019 22:00:00 - 22.02.2019 22:00:00 (CET)Firenze/Peretola, Italy (16170): visibility: 16.02.2019 22:00:00 - 22.02.2019 22:00:00 (CET)Firenze/Peretola, Italy (16170): precipitation: 16.02.2019 22:00:00 - 22.02.2019 22:00:00 (CET)
Date & Time tt [°C] td [°C] ff [km/h] ff [kn] dd ppp [hPa] vv [km] rr [mm]
22.02.2019 22:00:00 7,1 5,5 5 3 E 1025,4 10 0,0
22.02.2019 21:00:00 8,0 6,0 5 3 E - 10 -
22.02.2019 20:00:00 12,0 8,0 8 4 SW - 10 -
22.02.2019 19:00:00 13,1 7,9 11 6 SW 1024,3 10 -
22.02.2019 18:00:00 16,0 7,0 5 3 W - 10 -
22.02.2019 17:00:00 17,0 7,0 8 4 W - 10 -
22.02.2019 16:00:00 17,0 7,2 8 4 WNW 1022,6 10 0,0
22.02.2019 15:00:00 16,0 7,0 9 5 NNW - 10 -
22.02.2019 14:00:00 15,0 7,0 5 3 WNW - 10 -
22.02.2019 13:00:00 15,1 7,1 8 4 - 1023,9 10 -
22.02.2019 12:00:00 14,0 7,0 4 2 - - 10 -
22.02.2019 11:00:00 13,0 7,0 5 3 SSE - 9 -
22.02.2019 10:00:00 11,5 6,9 5 3 W 1025,5 8 0,0
22.02.2019 09:00:00 10,0 7,0 5 3 WSW - 8 -
22.02.2019 08:00:00 9,0 6,0 4 2 - - 9 -
22.02.2019 07:00:00 8,8 7,2 5 3 N 1025,9 8 -
22.02.2019 06:00:00 9,0 7,0 5 3 W - 8 -
22.02.2019 05:00:00 9,0 7,0 4 2 NW - 8 -
22.02.2019 04:00:00 8,8 7,2 4 2 - 1026,6 8 0,0
22.02.2019 03:00:00 9,0 7,0 4 2 - - 8 -
22.02.2019 02:00:00 9,0 7,0 2 1 - - 8 -
22.02.2019 01:00:00 8,7 7,0 4 2 - 1028,1 8 -
22.02.2019 00:00:00 9,0 8,0 2 1 - - 10 -
21.02.2019 23:00:00 9,0 7,0 4 2 E - 9 -
21.02.2019 22:00:00 7,9 6,5 5 3 E 1028,1 9 0,0
21.02.2019 21:00:00 8,0 6,0 5 3 E - 10 -
21.02.2019 20:00:00 10,0 7,0 5 3 WSW - 10 -
21.02.2019 19:00:00 11,5 7,2 11 6 SW 1027,5 10 -
21.02.2019 18:00:00 14,0 7,0 13 7 SW - 10 -
21.02.2019 17:00:00 16,0 6,0 5 3 WNW - 10 -
21.02.2019 16:00:00 15,8 6,7 8 4 W 1026,9 10 0,0
21.02.2019 15:00:00 16,0 7,0 8 4 - - 10 -
21.02.2019 14:00:00 15,0 6,0 8 4 - - 10 -
21.02.2019 13:00:00 13,5 6,2 4 2 - 1028,1 10 -
21.02.2019 12:00:00 12,0 6,0 4 2 - - 10 -
21.02.2019 11:00:00 10,0 6,0 2 1 - - 8 -
21.02.2019 10:00:00 6,9 4,0 4 2 - 1029,3 8 0,0
21.02.2019 09:00:00 4,0 4,0 0 0 N - 6 -
21.02.2019 08:00:00 2,0 2,0 2 1 - - 7 -
21.02.2019 07:00:00 1,3 1,2 2 1 - 1027,8 10 -
21.02.2019 06:00:00 0,0 0,0 4 2 E - 10 -
21.02.2019 05:00:00 2,0 2,0 2 1 - - 10 -
21.02.2019 04:00:00 3,3 3,1 2 1 NNE 1027,3 10 0,0
21.02.2019 03:00:00 4,0 3,0 2 1 NNE - 10 -
21.02.2019 02:00:00 4,0 3,0 4 2 NNE - 10 -
21.02.2019 01:00:00 4,4 3,1 4 2 E 1027,1 10 -
21.02.2019 00:00:00 7,0 4,0 8 4 E - 10 -
20.02.2019 23:00:00 6,0 4,0 8 4 E - 10 -
20.02.2019 22:00:00 6,7 4,4 8 4 E 1026,3 25 0,0
20.02.2019 21:00:00 7,0 4,0 2 1 - - 10 -
20.02.2019 20:00:00 8,0 4,0 2 1 - - 10 -
20.02.2019 19:00:00 10,4 5,1 2 1 WNW 1024,9 25 -
20.02.2019 18:00:00 14,0 4,0 11 6 WSW - 10 -
20.02.2019 17:00:00 15,0 3,0 8 4 WNW - 10 -
20.02.2019 16:00:00 15,4 2,9 5 3 WSW 1024,1 30 0,0
20.02.2019 15:00:00 15,0 3,0 5 3 - - 10 -
20.02.2019 14:00:00 14,0 3,0 9 5 W - 10 -
20.02.2019 13:00:00 15,0 3,0 4 2 - - 10 -
20.02.2019 12:00:00 12,0 4,0 4 2 - - 10 -
20.02.2019 11:00:00 10,0 4,0 4 2 - - 10 -
20.02.2019 10:00:00 8,2 3,7 2 1 - 1025,7 10 0,0
20.02.2019 09:00:00 5,0 4,0 2 1 - - 10 -
20.02.2019 08:00:00 2,0 2,0 2 1 SSW - 10 -
20.02.2019 07:00:00 2,8 2,5 2 1 - 1024,4 10 -
20.02.2019 06:00:00 3,0 3,0 2 1 - - 10 -
20.02.2019 05:00:00 3,0 2,0 4 2 ENE - 10 -
20.02.2019 04:00:00 3,1 1,5 4 2 - 1024,0 10 0,0
20.02.2019 03:00:00 6,0 3,0 2 1 - - 10 -
20.02.2019 02:00:00 7,0 3,0 5 3 ESE - 10 -
20.02.2019 01:00:00 7,2 3,2 5 3 E 1024,4 10 -
20.02.2019 00:00:00 7,0 3,0 8 4 ESE - 10 -
19.02.2019 23:00:00 7,0 3,0 8 4 ESE - 10 -
19.02.2019 22:00:00 7,1 3,3 9 5 ESE 1024,1 10 0,0
19.02.2019 21:00:00 8,0 3,0 8 4 ESE - 10 -
19.02.2019 20:00:00 9,0 4,0 9 5 E - 10 -
19.02.2019 19:00:00 11,4 3,4 5 3 SSW 1023,5 10 -
19.02.2019 18:00:00 12,0 3,0 4 2 - - 10 -
19.02.2019 17:00:00 12,0 3,0 5 3 SSW - 10 -
19.02.2019 16:00:00 12,2 3,5 5 3 WNW 1023,5 10 0,0
19.02.2019 15:00:00 12,0 4,0 5 3 NNW - 10 -
19.02.2019 14:00:00 12,0 4,0 5 3 NNW - 10 -
19.02.2019 13:00:00 11,6 3,6 2 1 N 1024,4 25 -
19.02.2019 12:00:00 11,0 5,0 4 2 - - 10 -
19.02.2019 11:00:00 10,0 6,0 4 2 - - 8 -
19.02.2019 10:00:00 8,8 5,2 2 1 - 1025,0 8 0,0
19.02.2019 09:00:00 8,0 5,0 2 1 - - 7 -
19.02.2019 08:00:00 7,0 5,0 2 1 - - 7 -
19.02.2019 07:00:00 6,9 5,0 4 2 WNW 1023,8 6 -
19.02.2019 06:00:00 7,0 5,0 2 1 - - 8 -
19.02.2019 05:00:00 7,0 5,0 2 1 - - 8 -
19.02.2019 04:00:00 6,5 4,7 2 1 N 1024,0 8 0,0
19.02.2019 03:00:00 7,0 5,0 5 3 W - 8 -
19.02.2019 02:00:00 7,0 5,0 4 2 ESE - 10 -
19.02.2019 01:00:00 8,0 4,8 8 4 ESE 1025,0 10 -
19.02.2019 00:00:00 7,0 5,0 4 2 - - 10 -
18.02.2019 23:00:00 8,0 5,0 8 4 ESE - 10 -
18.02.2019 22:00:00 5,6 3,5 8 4 ENE 1025,0 10 0,0
18.02.2019 21:00:00 6,0 4,0 4 2 E - 10 -
18.02.2019 20:00:00 7,0 4,0 2 1 - - 10 -
18.02.2019 19:00:00 8,8 4,5 4 2 NNE 1024,1 10 -
18.02.2019 18:00:00 12,0 5,0 4 2 WNW - 10 -
18.02.2019 17:00:00 14,0 4,0 5 3 WSW - 10 -
18.02.2019 16:00:00 14,3 4,8 5 3 WNW 1024,2 10 0,0
18.02.2019 15:00:00 15,0 5,0 4 2 - - 10 -
18.02.2019 14:00:00 13,0 5,0 5 3 - - 10 -
18.02.2019 13:00:00 12,1 5,1 5 3 SSW 1026,1 8 -
18.02.2019 12:00:00 11,0 6,0 4 2 - - 8 -
18.02.2019 11:00:00 10,0 5,0 8 4 SSE - 8 -
18.02.2019 10:00:00 9,0 4,8 9 5 ESE 1027,5 8 0,0
18.02.2019 09:00:00 8,0 6,0 4 2 - - 6 -
18.02.2019 08:00:00 7,0 6,0 4 2 - - 6 -
18.02.2019 07:00:00 7,1 5,5 2 1 - 1027,0 9 -
18.02.2019 06:00:00 7,0 5,0 2 1 ENE - 10 -
18.02.2019 05:00:00 6,0 5,0 2 1 WNW - 8 -
18.02.2019 04:00:00 6,2 5,4 4 2 WNW 1027,4 7 0,0
18.02.2019 03:00:00 7,0 5,0 2 1 - - 8 -
18.02.2019 02:00:00 6,0 5,0 4 2 - - 8 -
18.02.2019 01:00:00 5,5 4,8 8 4 ESE 1028,0 6 -
18.02.2019 00:00:00 5,0 4,0 5 3 E - 7 -
17.02.2019 23:00:00 6,0 5,0 5 3 E - 8 -
17.02.2019 22:00:00 6,2 4,3 8 4 E 1028,1 8 0,0
17.02.2019 21:00:00 7,0 5,0 5 3 ENE - 8 -
17.02.2019 20:00:00 9,0 5,0 4 2 - - 10 -
17.02.2019 19:00:00 8,6 3,6 4 2 - 1027,4 10 -
17.02.2019 18:00:00 13,0 6,0 8 4 SW - 10 -
17.02.2019 17:00:00 15,0 5,0 8 4 WSW - 10 -
17.02.2019 16:00:00 15,8 5,2 8 4 W 1027,3 10 0,0
17.02.2019 15:00:00 15,0 4,0 5 3 - - 10 -
17.02.2019 14:00:00 15,0 5,0 8 4 WSW - 10 -
17.02.2019 13:00:00 13,9 4,9 5 3 - 1029,3 10 -
17.02.2019 12:00:00 11,0 3,0 4 2 - - 10 -
17.02.2019 11:00:00 - - - - - - - -
17.02.2019 10:00:00 6,2 0,7 4 2 - 1030,8 10 0,0
17.02.2019 09:00:00 4,0 1,0 2 1 - - 10 -
17.02.2019 08:00:00 1,0 0,0 4 2 - - 10 -
17.02.2019 07:00:00 0,5 -0,8 2 1 NE 1030,2 10 -
17.02.2019 06:00:00 1,0 0,0 2 1 - - 10 -
17.02.2019 05:00:00 0,0 -2,0 2 1 - - 10 -
17.02.2019 04:00:00 1,7 -0,5 4 2 - 1029,7 10 0,0
17.02.2019 03:00:00 2,0 -1,0 4 2 - - 10 -
17.02.2019 02:00:00 3,0 0,0 4 2 E - 10 -
17.02.2019 01:00:00 3,7 -0,6 8 4 ESE 1030,0 10 -
17.02.2019 00:00:00 5,0 0,0 4 2 - - 10 -
16.02.2019 23:00:00 6,0 0,0 5 3 E - 10 -
16.02.2019 22:00:00 7,5 0,6 4 2 E 1029,5 10 0,0

tt = temperature
td = dewpoint
ff = wind speed
dd = wind direction
ppp = reduced air pressure
vv = visibility
rr = precipitation

Next stations